sat.trackr.live / text

‹ back to catalog

STARLINK-30843

NORAD 58241 · 2023-171M

PAYLOAD ACTIVE UNKNOWN

§ Identity

Operator
Country
US
Launch date
2023-11-08
Launch site
AFETR
Launch vehicle
Mass (kg)
RCS (m²)

Purposes: comms

External: N2YO · Heavens-Above · Gunter

§ Orbital elements

Epoch: 2026-05-25T04:43:15.110688Z

Period
94.27 min
Inclination
42.9985°
Eccentricity
0.0001498
Mean motion
15.27574684 rev/d
Perigee alt
482.0 km
Apogee alt
484.1 km
Semi-major
6,861.2 km
B*
3.1707e-5
RAAN
213.2831°
Arg perigee
269.5938°
Mean anomaly
90.4742°
Rev number
14,145

§ Raw data

STARLINK-308431 58241U 23171M   26145.19670267  .00000610  00000+0  31707-4 0  99982 58241  42.9985 213.2831 0001498 269.5938  90.4742 15.27574684141453

JSON: /api/v1/satellites/58241 · /tle

For live sub-satellite position, see the globe view (requires WebGL).

§ Visibility from observer

Set your observer location to see the next 7 days of passes ≥ 10°. The values pass through the URL so the page stays shareable.

No JS? Fill the form by hand. The geolocation button needs JavaScript.